Location: Adrasan
(36.3319°N, 30.4314°E)
Time: 03:31:14
(UTC+00:00)

COSMO-SKYMED 1 - Pass Details

Date: 15 October 2025
Orbit: 580 x 582 km, 97.9° (Epoch: 13 November)

Event Time Altitude Azimuth Distance (km) Brightness Sun altitude
Rises 15:52:28 0° 18° (NNE) 2,807 5.7 -6.9°
Reaches altitude 10° 15:54:41 10° 24° (NNE) 1,903 4.8 -7.3°
Maximum altitude 15:58:42 50° 100° (E) 747 2.6 -8.1°
Drops below altitude 10° 16:02:40 10° 176° (S) 1,887 5.1 -8.9°
Sets 16:04:51 0° 181° (S) 2,781 6.0 -9.4°
